Change the Weather History Date:

Wednesday, October 24, 2012

  Actual Average Record
Temperature  
Mean Temperature 82 °F -  
Max Temperature 90 °F 87 °F 95 °F (2004)
Min Temperature 73 °F 69 °F 60 °F (2011)
Cooling Degree Days 18    
Growing Degree Days 32 (Base 50)    
Moisture  
Dew Point 71 °F    
Average Humidity 71    
Maximum Humidity 89    
Minimum Humidity 50    
Precipitation  
Precipitation 0.00 in - - ()
Sea Level Pressure  
Sea Level Pressure 29.86 in    
Wind  
Wind Speed 4 mph ()    
Max Wind Speed 13 mph    
Max Gust Speed 17 mph    
Visibility 6.7 miles    
Events      
Averages and records for this station are not official NWS values.
T = Trace of Precipitation, MM = Missing Value Source: Averaged Metar Reports

Daily Weather History Graph

Daily Weather History Graph

Search for Another Location

Airport or City:

Trip Planner

Search our weather history database for the weather conditions in past years. The results will help you decide how hot, cold, wet, or windy it might be!

Date:

Astronomy

Oct. 24, 2012 Rise Set
Actual Time 6:57 AM CDT 6:27 PM CDT
Civil Twilight 6:35 AM CDT 6:50 PM CDT
Nautical Twilight 6:09 AM CDT 7:16 PM CDT
Astronomical Twilight 5:43 AM CDT 7:41 PM CDT
Moon 3:12 PM CDT (10/24) 2:28 AM CDT (10/24)
Length of Visible Light 12h 14m
Length of Day
11h 29m
Waxing Gibbous, 76% of the Moon is Illuminated
Oct 24
Waxing Gibbous
Oct 29
Full
Nov 6
Last Quarter
Nov 13
New
Nov 20
First Quarter

Hourly Weather History & Observations

Time (CDT) Temp. Heat Index Dew Point Humidity Pressure Visibility Wind Dir Wind Speed Gust Speed Precip Events Conditions
12:47 AM 77.0 °F - 71.6 °F 83% 29.88 in 7.0 mi ENE 3.5 mph - N/A   Clear
1:48 AM 77.0 °F - 71.6 °F 83% 29.87 in 7.0 mi Calm Calm - N/A   Clear
2:48 AM 75.2 °F - 71.6 °F 89% 29.86 in 7.0 mi Calm Calm - N/A   Clear
3:46 AM 75.2 °F - 71.6 °F 89% 29.86 in 7.0 mi Calm Calm - N/A   Clear
4:42 AM 75.2 °F - 71.6 °F 89% 29.85 in 7.0 mi Calm Calm - N/A   Clear
5:43 AM 75.2 °F - 69.8 °F 83% 29.86 in 7.0 mi NE 6.9 mph - N/A   Clear
6:44 AM 75.2 °F - 69.8 °F 83% 29.88 in 7.0 mi Calm Calm - N/A   Clear
6:50 AM 77 °F - 73 °F 85% 29.88 in 6 mi ENE 6.7 mph - -   Scattered Clouds
7:46 AM 77.0 °F - 71.6 °F 83% 29.89 in 6.0 mi ENE 4.6 mph - N/A   Clear
8:49 AM 80.6 °F 84.6 °F 71.6 °F 74% 29.91 in 7.0 mi NE 4.6 mph - N/A   Partly Cloudy
9:46 AM 82.4 °F 87.2 °F 71.6 °F 70% 29.89 in 7.0 mi ENE 6.9 mph - N/A   Mostly Cloudy
9:50 AM 84 °F - 75 °F 67% 29.92 in 6 mi ENE 13.4 mph - -   Partly Cloudy
10:47 AM 86.0 °F 91.8 °F 71.6 °F 62% 29.91 in 7.0 mi NE 9.2 mph - N/A   Mostly Cloudy
11:47 AM 86.0 °F 91.8 °F 71.6 °F 62% 29.88 in 7.0 mi NE 9.2 mph - N/A   Mostly Cloudy
12:47 PM 87.8 °F 91.4 °F 68.0 °F 52% 29.87 in 7.0 mi ENE 10.4 mph - N/A   Mostly Cloudy
12:50 PM 88 °F - 74 °F 55% 29.86 in 6 mi ENE 6.7 mph - -   Mostly Cloudy
1:47 PM 87.8 °F 92.6 °F 69.8 °F 55% 29.82 in 7.0 mi North 9.2 mph - N/A   Mostly Cloudy
2:43 PM 87.8 °F 92.6 °F 69.8 °F 55% 29.81 in 7.0 mi NNE 6.9 mph - N/A   Mostly Cloudy
3:45 PM 86.0 °F 89.4 °F 68.0 °F 55% 29.81 in 7.0 mi NNE 5.8 mph 17.3 mph N/A   Mostly Cloudy
3:50 PM 88 °F - 72 °F 50% 29.81 in 6 mi NNE 8.9 mph - -   Partly Cloudy
4:44 PM 86.0 °F 89.4 °F 68.0 °F 55% 29.79 in 7.0 mi NNE 8.1 mph - N/A   Scattered Clouds
5:40 PM 82.4 °F 85.4 °F 68.0 °F 62% 29.80 in 7.0 mi NNE 8.1 mph - N/A   Partly Cloudy
6:45 PM 80.6 °F 83.9 °F 69.8 °F 70% 29.84 in 7.0 mi NNE 11.5 mph - N/A   Partly Cloudy
6:50 PM 82 °F - 72 °F 65% 29.82 in 6 mi NNE 8.9 mph - -   Scattered Clouds
7:44 PM 78.8 °F - 69.8 °F 74% 29.84 in 7.0 mi NNE 6.9 mph - N/A   Partly Cloudy
8:48 PM 77.0 °F - 68.0 °F 74% 29.86 in 7.0 mi NNE 5.8 mph - N/A   Clear
9:50 PM 79 °F - 71 °F 71% 29.87 in 3 mi NNE 2.2 mph - -  
9:50 PM 77.0 °F - 68.0 °F 74% 29.90 in 7.0 mi Calm Calm - N/A   Clear
10:48 PM 75.2 °F - 68.0 °F 78% 29.86 in 7.0 mi Calm Calm - N/A   Clear
11:43 PM 73.4 °F - 68.0 °F 83% 29.85 in 7.0 mi Calm Calm - N/A   Clear